Volver al catálogo

OPS 4682 DEB

ActivoPO
NORAD 51496·DEBRIS·🇺🇸 United States

Lanzado Apr 3, 1965 desde Vandenberg Space Force Base

Loading…

Próximos Pases (próximas 24 horas)

TLE

ObsoletoSource: Space-Track

Época: Aug 31, 2026, 13:59 UTC

1 51496U 65027GG  26243.58323213  .00001461  00000-0  48779-2 0  9998
2 51496  90.2622   7.6800 0019707 137.6019 222.6629 12.99257441518388

Sigue OPS 4682 DEB en tiempo real con AllMySat

Download on the App Store